When you browse on this site, cookies collect data to enhance your experience and personalize the content and advertising you see.
Visit our Privacy Policy to learn more. By continuing to use the site, you agree to this use of cookies and data.
  • In Österreich
  • Länderverzeichnis
  • Für 7 Tage
  • Wassertemperatur
  • Wetterkarte
  • News
  • Widgets
  • user-avatar
    Anmelden

    Stündliche Wetter Zastavche

    Heute, 18 August, Sonntag

    Zeit Temperatur Niederschläge Wind Luftdruck Luftfeuchtigkeit
    00:00 +14°C° 0 mm 0 m/S 737 mmHg 82%
    01:00 +14°C° 0 mm 0 m/S 737 mmHg 82%
    02:00 +15°C° 0 mm 1 m/S 737 mmHg 82%
    03:00 +14°C° 0 mm 1 m/S 737 mmHg 83%
    04:00 +14°C° 0 mm 1 m/S 737 mmHg 84%
    05:00 +14°C° 0 mm 1 m/S 737 mmHg 85%
    06:00 +15°C° 0 mm 1 m/S 737 mmHg 81%
    07:00 +18°C° 0 mm 1 m/S 737 mmHg 76%
    08:00 +19°C° 0 mm 1 m/S 737 mmHg 71%
    09:00 +21°C° 0 mm 1 m/S 737 mmHg 65%
    10:00 +23°C° 0 mm 1 m/S 738 mmHg 60%
    11:00 +25°C° 0 mm 1 m/S 738 mmHg 55%
    12:00 +26°C° 0 mm 2 m/S 738 mmHg 52%
    13:00 +27°C° 0 mm 2 m/S 738 mmHg 49%
    14:00 +27°C° 0 mm 2 m/S 738 mmHg 46%
    15:00 +27°C° 0 mm 2 m/S 738 mmHg 49%
    16:00 +27°C° 0 mm 2 m/S 737 mmHg 52%
    17:00 +27°C° 0 mm 2 m/S 737 mmHg 54%
    18:00 +25°C° 0 mm 2 m/S 738 mmHg 59%
    19:00 +23°C° 0 mm 2 m/S 738 mmHg 64%
    20:00 +20°C° 0 mm 2 m/S 738 mmHg 68%
    21:00 +20°C° 0 mm 2 m/S 738 mmHg 70%
    22:00 +20°C° 0 mm 1 m/S 738 mmHg 72%
    23:00 +19°C° 0 mm 1 m/S 738 mmHg 73%

    Morgen, 19 August, Montag

    Zeit Temperatur Niederschläge Wind Luftdruck Luftfeuchtigkeit
    00:00 +19°C° 0 mm 1 m/S 738 mmHg 75%
    01:00 +19°C° 0 mm 1 m/S 738 mmHg 76%
    02:00 +18°C° 0 mm 1 m/S 738 mmHg 77%
    03:00 +18°C° 0 mm 1 m/S 738 mmHg 77%
    04:00 +18°C° 0 mm 1 m/S 738 mmHg 77%
    05:00 +17°C° 0 mm 2 m/S 738 mmHg 77%
    06:00 +18°C° 0 mm 2 m/S 738 mmHg 74%
    07:00 +20°C° 0 mm 2 m/S 739 mmHg 71%
    08:00 +21°C° 0 mm 2 m/S 739 mmHg 68%
    09:00 +24°C° 0 mm 2 m/S 739 mmHg 63%
    10:00 +26°C° 0 mm 2 m/S 739 mmHg 57%
    11:00 +28°C° 0 mm 2 m/S 739 mmHg 52%
    12:00 +29°C° 0 mm 2 m/S 739 mmHg 51%
    13:00 +29°C° 0 mm 2 m/S 739 mmHg 49%
    14:00 +30°C° 0 mm 2 m/S 739 mmHg 47%
    15:00 +30°C° 0 mm 2 m/S 739 mmHg 49%
    16:00 +30°C° 0 mm 2 m/S 739 mmHg 51%
    17:00 +30°C° 0 mm 2 m/S 739 mmHg 53%
    18:00 +28°C° 0 mm 2 m/S 739 mmHg 57%
    19:00 +26°C° 0 mm 2 m/S 739 mmHg 61%
    20:00 +24°C° 0 mm 3 m/S 739 mmHg 65%
    21:00 +23°C° 0 mm 2 m/S 739 mmHg 65%
    22:00 +21°C° 0 mm 2 m/S 740 mmHg 66%
    23:00 +21°C° 0 mm 2 m/S 740 mmHg 66%

    übermorgen, 20 August, Dienstag

    Zeit Temperatur Niederschläge Wind Luftdruck Luftfeuchtigkeit
    00:00 +20°C° 0 mm 2 m/S 740 mmHg 67%
    01:00 +20°C° 0 mm 2 m/S 740 mmHg 68%
    02:00 +20°C° 0 mm 1 m/S 740 mmHg 69%
    03:00 +20°C° 0 mm 1 m/S 740 mmHg 71%
    04:00 +19°C° 0 mm 1 m/S 740 mmHg 74%
    05:00 +19°C° 0 mm 1 m/S 740 mmHg 76%
    06:00 +20°C° 0 mm 1 m/S 741 mmHg 74%
    07:00 +21°C° 0 mm 1 m/S 741 mmHg 73%
    08:00 +23°C° 0 mm 2 m/S 741 mmHg 71%
    09:00 +24°C° 0 mm 1 m/S 741 mmHg 67%
    10:00 +26°C° 0 mm 1 m/S 742 mmHg 63%
    11:00 +28°C° 0 mm 1 m/S 742 mmHg 59%
    12:00 +29°C° 0 mm 1 m/S 742 mmHg 55%
    13:00 +30°C° 0 mm 1 m/S 742 mmHg 52%
    14:00 +31°C° 0 mm 1 m/S 742 mmHg 48%
    15:00 +31°C° 0 mm 1 m/S 741 mmHg 49%
    16:00 +30°C° 0 mm 1 m/S 741 mmHg 49%
    17:00 +30°C° 0 mm 1 m/S 741 mmHg 49%
    18:00 +28°C° 0 mm 2 m/S 741 mmHg 53%
    19:00 +26°C° 0 mm 2 m/S 741 mmHg 58%
    20:00 +24°C° 0 mm 2 m/S 741 mmHg 62%
    21:00 +24°C° 0 mm 2 m/S 742 mmHg 62%
    22:00 +23°C° 0 mm 2 m/S 742 mmHg 62%
    23:00 +21°C° 0 mm 2 m/S 742 mmHg 62%

    21 August, Mittwoch

    Zeit Temperatur Niederschläge Wind Luftdruck Luftfeuchtigkeit
    00:00 +21°C° 0 mm 2 m/S 742 mmHg 63%
    01:00 +20°C° 0 mm 2 m/S 742 mmHg 63%
    02:00 +20°C° 0 mm 2 m/S 741 mmHg 63%
    03:00 +19°C° 0 mm 2 m/S 741 mmHg 64%
    04:00 +19°C° 0 mm 2 m/S 741 mmHg 64%
    05:00 +18°C° 0 mm 2 m/S 741 mmHg 64%
    06:00 +20°C° 0 mm 2 m/S 741 mmHg 63%
    07:00 +21°C° 0 mm 2 m/S 741 mmHg 62%
    08:00 +23°C° 0 mm 2 m/S 741 mmHg 61%
    09:00 +25°C° 0 mm 3 m/S 741 mmHg 57%
    10:00 +27°C° 0 mm 3 m/S 741 mmHg 53%
    11:00 +29°C° 0 mm 3 m/S 741 mmHg 48%
    12:00 +30°C° 0 mm 3 m/S 741 mmHg 45%
    13:00 +31°C° 0 mm 2 m/S 741 mmHg 42%
    14:00 +32°C° 0 mm 2 m/S 741 mmHg 38%
    15:00 +32°C° 0 mm 2 m/S 741 mmHg 41%
    16:00 +32°C° 0 mm 2 m/S 740 mmHg 45%
    17:00 +31°C° 0 mm 2 m/S 740 mmHg 48%
    18:00 +29°C° 0.4 mm 3 m/S 741 mmHg 61%
    19:00 +26°C° 0.4 mm 4 m/S 741 mmHg 73%
    20:00 +22°C° 0.4 mm 6 m/S 741 mmHg 86%
    21:00 +21°C° 0 mm 6 m/S 741 mmHg 87%
    22:00 +20°C° 0 mm 5 m/S 742 mmHg 88%
    23:00 +19°C° 0 mm 5 m/S 742 mmHg 90%

    22 August, Donnerstag

    Zeit Temperatur Niederschläge Wind Luftdruck Luftfeuchtigkeit
    00:00 +19°C° 0 mm 5 m/S 742 mmHg 90%
    01:00 +17°C° 0 mm 5 m/S 742 mmHg 90%
    02:00 +18°C° 0 mm 4 m/S 743 mmHg 90%
    03:00 +18°C° 0 mm 4 m/S 742 mmHg 90%
    04:00 +17°C° 0 mm 4 m/S 742 mmHg 90%
    05:00 +17°C° 0 mm 4 m/S 742 mmHg 90%
    06:00 +17°C° 0 mm 4 m/S 743 mmHg 89%
    07:00 +17°C° 0 mm 3 m/S 743 mmHg 88%
    08:00 +17°C° 0 mm 3 m/S 743 mmHg 86%
    09:00 +17°C° 0 mm 3 m/S 743 mmHg 85%
    10:00 +17°C° 0 mm 3 m/S 743 mmHg 83%
    11:00 +18°C° 0 mm 3 m/S 744 mmHg 81%
    12:00 +18°C° 0 mm 3 m/S 743 mmHg 78%
    13:00 +19°C° 0 mm 3 m/S 743 mmHg 76%
    14:00 +19°C° 0 mm 3 m/S 743 mmHg 74%
    15:00 +19°C° 0 mm 3 m/S 743 mmHg 74%
    16:00 +19°C° 0 mm 3 m/S 743 mmHg 74%
    17:00 +19°C° 0 mm 3 m/S 743 mmHg 75%
    18:00 +19°C° 0 mm 2 m/S 743 mmHg 76%
    19:00 +18°C° 0 mm 2 m/S 743 mmHg 77%
    20:00 +19°C° 0 mm 1 m/S 743 mmHg 78%
    21:00 +19°C° 0 mm 1 m/S 743 mmHg 79%
    22:00 +18°C° 0 mm 1 m/S 743 mmHg 80%
    23:00 +18°C° 0 mm 1 m/S 743 mmHg 81%

    23 August, Freitag

    Zeit Temperatur Niederschläge Wind Luftdruck Luftfeuchtigkeit
    00:00 +18°C° 0 mm 1 m/S 743 mmHg 83%
    01:00 +16°C° 0 mm 1 m/S 743 mmHg 84%
    02:00 +16°C° 0 mm 2 m/S 743 mmHg 86%
    03:00 +16°C° 0 mm 2 m/S 743 mmHg 88%
    04:00 +15°C° 0 mm 2 m/S 743 mmHg 89%
    05:00 +15°C° 0 mm 2 m/S 743 mmHg 91%
    06:00 +16°C° 0 mm 2 m/S 743 mmHg 88%
    07:00 +16°C° 0 mm 2 m/S 743 mmHg 85%
    08:00 +17°C° 0 mm 2 m/S 743 mmHg 81%
    09:00 +18°C° 0 mm 2 m/S 743 mmHg 77%
    10:00 +19°C° 0 mm 2 m/S 743 mmHg 72%
    11:00 +21°C° 0 mm 2 m/S 743 mmHg 67%
    12:00 +21°C° 0 mm 2 m/S 743 mmHg 64%
    13:00 +23°C° 0 mm 2 m/S 743 mmHg 60%
    14:00 +24°C° 0 mm 2 m/S 743 mmHg 57%
    15:00 +24°C° 0 mm 2 m/S 743 mmHg 57%
    16:00 +24°C° 0 mm 3 m/S 743 mmHg 57%
    17:00 +25°C° 0 mm 3 m/S 743 mmHg 57%
    18:00 +22°C° 0 mm 3 m/S 743 mmHg 62%
    19:00 +20°C° 0 mm 3 m/S 743 mmHg 68%
    20:00 +19°C° 0 mm 2 m/S 743 mmHg 74%
    21:00 +18°C° 0 mm 2 m/S 744 mmHg 75%
    22:00 +17°C° 0 mm 2 m/S 744 mmHg 77%
    23:00 +16°C° 0 mm 2 m/S 744 mmHg 78%
    Mehr zeigen